Flag for American Samoa Weather past 2 weeks in Pago Pago, American Samoa

Now
85 °F

Scattered clouds.


Feels Like: 93 °F
Forecast: 76 / 81 °F
Wind: 13 mph from Southeast

Location: Pago Pago / Int. Airp.

Current Time: Sep 3, 2015 at 2:33:05 PM

Latest Report: Sep 3, 2015 at 1:50 PM


Visibility: 12 mi

Pressure: 29.93 "Hg

Humidity: 70%

Dew point: 74 °F

Location of Pago PagoLocation

Historic Weather in Pago Pago — Graph

°F

Pago Pago temperature yesterday

Maximum temperature yesterday: 86 °F (at 12:50 PM)
Minimum temperature yesterday: 76 °F (at 5:50 AM)
Average temperature yesterday: 80 °F

Past Weeks' High & Low Weather Summary

 TemperatureHumidityPressure
High88 °F (Aug 24, 2:50 PM)95% (Aug 24, 6:55 AM)30.06 "Hg (Aug 24, 6:55 AM)
Low74 °F (Aug 30, 5:53 AM)55% (Aug 24, 2:50 PM)29.82 "Hg (Aug 24, 2:50 PM)
Average79 °F75%29.93 "Hg
* Reported Aug 19 12:00 Noon — Sep 3 12:50 PM, Pago Pago, Weather by CustomWeather, © 2015

Note: Actual official high and low records may vary slightly from our data, if they occured in-between our weather recording intervals... More about our weather records

Advertising

Pago Pago weather history for previous 24 hours

 ConditionsComfort  
Time TempWeatherWind HumidityBarometerVisibility
12:50 PM
Thu, Sep 3
84 °FPassing clouds.13 mph70%29.95 "Hg12 mi
11:50 AM85 °FPassing clouds.13 mph67%29.97 "Hg12 mi
10:50 AM85 °FPassing clouds.13 mph68%29.99 "Hg12 mi
9:50 AM84 °FPassing clouds.12 mph70%30.01 "Hg12 mi
8:50 AM80 °FScattered clouds.10 mph78%30.01 "Hg12 mi
7:50 AM80 °FScattered clouds.10 mph75%30.01 "Hg12 mi
6:50 AM78 °FScattered clouds.12 mph80%29.99 "Hg12 mi
5:51 AM78 °FPassing clouds.12 mph80%29.96 "Hg10 mi
4:55 AM78 °FPassing clouds.12 mph81%29.94 "Hg10 mi
3:50 AM77 °FPartly cloudy.9 mph82%29.93 "Hg10 mi
2:51 AM78 °FPartly cloudy.9 mph82%29.94 "Hg10 mi
1:51 AM78 °FPassing clouds.12 mph82%29.96 "Hg10 mi
12:52 AM78 °FPartly cloudy.12 mph80%29.98 "Hg10 mi
11:50 PM
Wed, Sep 2
78 °FPassing clouds.12 mph81%29.99 "Hg10 mi
10:51 PM78 °FPassing clouds.14 mph81%30.01 "Hg10 mi
9:50 PM78 °FPassing clouds.10 mph79%30.01 "Hg10 mi
8:50 PM79 °FPassing clouds.10 mph79%30.01 "Hg10 mi
7:50 PM79 °FPassing clouds.13 mph79%29.99 "Hg10 mi
7:00 PM79 °FPassing clouds.10 mph78%29.98 "Hg11 mi
6:50 PM79 °FPassing clouds.10 mph78%29.98 "Hg11 mi
5:50 PM80 °FPassing clouds.13 mph75%29.96 "Hg12 mi
4:50 PM81 °FPassing clouds.14 mph73%29.95 "Hg12 mi
3:51 PM83 °FPassing clouds.13 mph68%29.94 "Hg12 mi
2:50 PM85 °FPassing clouds.14 mph66%29.95 "Hg12 mi
Weather by CustomWeather, © 2015

See weather overviewHow to use our weather pages